Orbital Elements at Epoch 2459000.5 (2020-May-31.0) TDB
Reference: JPL 18 (heliocentric ecliptic J2000)
Element | Value | Uncertainty (1-sigma) | Units |
e | .2562158561358133 | 3.3574e-08 | |
a | 2.35002857493881 | 8.174e-09 | au |
q | 1.747913991667237 | 7.6926e-08 | au |
i | 3.282677754348903 | 3.3565e-06 | deg |
node | 133.9731164849213 | 6.4993e-05 | deg |
peri | 125.0476945163196 | 6.5303e-05 | deg |
M | 135.4171444357822 | 6.5408e-06 | deg |
tp | 2458505.529527067997 (2019-Jan-22.02952707) | 2.3218e-05 | TDB |
period | 1315.855322440523 3.60 | 6.8653e-06 1.88e-08 | d yr |
n | .2735863083582065 | 1.4274e-09 | deg/d |
Q | 2.952143158210383 | 1.0268e-08 | au |
|
| | Orbit Determination Parameters
Additional Information
|